Date String (YYYY-MM-DD hh:mm:ss) UTC,Instrument flags,absolute air pressure of the measurement (hPa),sample flow rate (lpm),inlet stack bypass flow (lpm),air temperature of the measurement (°C),ambient temperature measured by the external sensor (°C),aerosol sample conditioner tube jacket temperature (°C),OPC LED temperature (°C),internal box temperature (°C),relative humidity of the measurement (%),span deviation,mass concentration of particles derived from Lorenz-Mie calculation of OPC scattering (μg/m³),mass concentration of particles derived from Lorenz-Mie calculation of OPC scattering (μg/m³),mass concentration of particles derived from Lorenz-Mie calculation of OPC scattering (μg/m³)
DateTimeUTC,F1_M11,P_M11,Q1_M11,Q2_M11,T1_M11,T2_M11,T3_M11,T4_M11,T5_M11,U1_M11,ZSPAN_M11,X2_M11,X0_M11,X1_M11
2024-06-18 21:00:00,SystemResetWarning,0826.9,4.99,000.00,028.8,028.1,000.0,037.3,030.7,011.8,0000.0,0004.97,0035.82,0001.80
2024-06-18 21:01:00,SystemResetWarning,0827.0,5.00,000.00,028.8,028.1,000.0,037.3,030.7,012.5,0000.0,0004.93,0034.74,0001.79
2024-06-18 21:02:00,SystemResetWarning,0827.0,5.01,000.00,028.9,028.1,000.0,037.3,030.7,012.0,0000.0,0004.88,0035.04,0001.79
2024-06-18 21:03:00,SystemResetWarning,0827.0,5.01,000.00,028.9,028.1,000.0,037.3,030.7,011.3,0000.0,0004.92,0033.82,0001.80
2024-06-18 21:04:00,SystemResetWarning,0827.0,4.99,000.00,028.9,028.1,000.0,037.4,030.7,011.9,0000.0,0004.89,0035.16,0001.79
2024-06-18 21:05:00,SystemResetWarning,0827.0,4.99,000.00,028.9,028.1,000.0,037.4,030.7,011.5,0000.0,0004.90,0035.51,0001.79
2024-06-18 21:06:00,SystemResetWarning,0826.9,4.99,000.00,028.9,028.1,000.0,037.4,030.7,011.3,0000.0,0004.95,0035.55,0001.81
2024-06-18 21:07:00,SystemResetWarning,0827.0,5.01,000.00,028.9,028.1,000.0,037.4,030.7,011.5,0000.0,0004.96,0035.53,0001.84
2024-06-18 21:08:00,SystemResetWarning,0827.1,5.01,000.00,028.9,028.2,000.0,037.4,030.7,012.0,0000.0,0005.02,0034.88,0001.86
2024-06-18 21:09:00,SystemResetWarning,0827.1,5.00,000.00,028.9,028.2,000.0,037.4,030.7,011.7,0000.0,0005.02,0036.47,0001.89
2024-06-18 21:10:00,SystemResetWarning,0827.0,4.99,000.00,028.9,028.1,000.0,037.4,030.7,011.8,0000.0,0005.03,0035.87,0001.91
2024-06-18 21:11:00,SystemResetWarning,0827.0,5.00,000.00,028.9,028.1,000.0,037.4,030.7,011.3,0000.0,0005.02,0036.15,0001.91
2024-06-18 21:12:00,SystemResetWarning,0827.0,5.00,000.00,028.9,028.2,000.0,037.4,030.7,012.0,0000.0,0005.10,0036.21,0001.91
2024-06-18 21:13:00,SystemResetWarning,0827.0,5.02,000.00,028.9,028.2,000.0,037.4,030.8,011.3,0000.0,0005.16,0036.07,0001.94
2024-06-18 21:14:00,SystemResetWarning,0827.0,5.00,000.00,028.9,028.2,000.0,037.4,030.8,011.8,0000.0,0005.04,0033.62,0001.95
2024-06-18 21:15:00,SystemResetWarning,0827.1,5.00,000.00,028.9,028.2,000.0,037.4,030.8,011.9,0000.0,0005.04,0031.06,0001.98
2024-06-18 21:16:00,SystemResetWarning,0827.0,4.99,000.00,029.0,028.2,000.0,037.4,030.8,011.7,0000.0,0005.05,0030.53,0002.00
2024-06-18 21:17:00,SystemResetWarning,0827.0,4.99,000.00,029.0,028.2,000.0,037.4,030.8,012.0,0000.0,0004.98,0031.32,0001.99
2024-06-18 21:18:00,SystemResetWarning,0827.0,4.99,000.00,029.0,028.2,000.0,037.5,030.8,011.7,0000.0,0004.94,0032.22,0001.96
2024-06-18 21:19:00,SystemResetWarning,0827.0,4.99,000.00,029.0,028.3,000.0,037.5,030.8,011.9,0000.0,0004.91,0031.49,0001.94
2024-06-18 21:20:00,SystemResetWarning,0827.0,5.01,000.00,029.0,028.3,000.0,037.5,030.8,011.6,0000.0,0004.96,0031.34,0001.93
2024-06-18 21:21:00,SystemResetWarning,0826.9,5.00,000.00,029.0,028.3,000.0,037.5,030.9,012.2,0000.0,0004.98,0032.22,0001.93
2024-06-18 21:22:00,SystemResetWarning,0827.0,5.00,000.00,029.0,028.3,000.0,037.5,030.9,012.4,0000.0,0004.99,0030.65,0001.92
2024-06-18 21:23:00,SystemResetWarning,0827.0,5.00,000.00,029.0,028.3,000.0,037.5,030.9,012.5,0000.0,0004.96,0030.81,0001.94
2024-06-18 21:24:00,SystemResetWarning,0827.0,5.00,000.00,029.0,028.3,000.0,037.5,030.9,012.4,0000.0,0004.91,0030.52,0001.93
2024-06-18 21:25:00,SystemResetWarning,0827.1,5.00,000.00,029.1,028.3,000.0,037.5,030.9,011.8,0000.0,0004.92,0031.13,0001.91
2024-06-18 21:26:00,SystemResetWarning,0827.0,5.00,000.00,029.1,028.3,000.0,037.5,030.9,011.6,0000.0,0004.86,0032.55,0001.91
2024-06-18 21:27:00,SystemResetWarning,0827.0,5.00,000.00,029.1,028.4,000.0,037.6,030.9,011.9,0000.0,0004.83,0032.79,0001.90
2024-06-18 21:28:00,SystemResetWarning,0827.0,4.99,000.00,029.1,028.4,000.0,037.6,030.9,011.6,0000.0,0004.83,0030.25,0001.90
2024-06-18 21:29:00,SystemResetWarning,0827.1,5.00,000.00,029.1,028.4,000.0,037.6,031.0,012.0,0000.0,0004.85,0029.02,0001.90
2024-06-18 21:30:00,SystemResetWarning,0827.0,5.01,000.00,029.1,028.4,000.0,037.6,031.0,011.9,0000.0,0004.92,0029.35,0001.93
2024-06-18 21:31:00,SystemResetWarning,0827.0,5.00,000.00,029.1,028.4,000.0,037.6,031.0,011.9,0000.0,0004.91,0028.31,0001.94
2024-06-18 21:32:00,SystemResetWarning,0827.0,4.99,000.00,029.1,028.4,000.0,037.6,031.0,011.8,0000.0,0004.89,0029.50,0001.95
2024-06-18 21:33:00,SystemResetWarning,0827.1,5.00,000.00,029.1,028.4,000.0,037.6,031.0,011.8,0000.0,0004.90,0030.82,0001.95
2024-06-18 21:34:00,SystemResetWarning,0827.0,5.01,000.00,029.2,028.4,000.0,037.6,031.0,011.7,0000.0,0004.95,0031.16,0001.97
2024-06-18 21:35:00,SystemResetWarning,0827.1,5.01,000.00,029.2,028.4,000.0,037.6,031.0,011.7,0000.0,0004.93,0030.62,0001.97
2024-06-18 21:36:00,SystemResetWarning,0827.0,5.00,000.00,029.2,028.4,000.0,037.6,031.0,011.8,0000.0,0004.95,0030.58,0001.97
2024-06-18 21:37:00,SystemResetWarning,0827.0,4.99,000.00,029.2,028.5,000.0,037.7,031.0,012.4,0000.0,0004.98,0030.29,0001.96
2024-06-18 21:38:00,SystemResetWarning,0827.1,5.00,000.00,029.2,028.5,000.0,037.7,031.0,012.4,0000.0,0005.04,0030.43,0001.97
2024-06-18 21:39:00,SystemResetWarning,0827.1,5.00,000.00,029.2,028.5,000.0,037.7,031.0,012.0,0000.0,0005.05,0032.38,0001.96
2024-06-18 21:40:00,SystemResetWarning,0827.1,5.00,000.00,029.2,028.5,000.0,037.7,031.0,011.6,0000.0,0005.05,0033.36,0001.99
2024-06-18 21:41:00,SystemResetWarning,0827.0,5.01,000.00,029.2,028.5,000.0,037.7,031.0,012.0,0000.0,0005.06,0034.25,0002.01
2024-06-18 21:42:00,SystemResetWarning,0827.1,5.01,000.00,029.2,028.5,000.0,037.7,031.1,011.7,0000.0,0005.08,0036.32,0002.01
2024-06-18 21:43:00,SystemResetWarning,0827.1,5.00,000.00,029.2,028.5,000.0,037.7,031.1,012.2,0000.0,0005.07,0034.97,0002.02
2024-06-18 21:44:00,SystemResetWarning,0827.0,4.99,000.00,029.3,028.6,000.0,037.7,031.1,011.8,0000.0,0005.04,0035.81,0002.03
2024-06-18 21:45:00,SystemResetWarning,0826.9,5.00,000.00,029.3,028.6,000.0,037.7,031.1,011.9,0000.0,0005.06,0037.10,0002.03
2024-06-18 21:46:00,SystemResetWarning,0827.0,4.99,000.00,029.3,028.6,000.0,037.7,031.1,012.2,0000.0,0005.04,0037.39,0002.02
2024-06-18 21:47:00,SystemResetWarning,0826.9,5.00,000.00,029.3,028.6,000.0,037.8,031.1,011.6,0000.0,0005.05,0039.17,0002.02
2024-06-18 21:48:00,SystemResetWarning,0826.9,5.01,000.00,029.3,028.6,000.0,037.8,031.1,011.9,0000.0,0005.04,0039.96,0002.02
2024-06-18 21:49:00,SystemResetWarning,0827.0,5.01,000.00,029.3,028.6,000.0,037.8,031.1,012.4,0000.0,0005.01,0037.59,0002.01
2024-06-18 21:50:00,SystemResetWarning,0827.0,5.00,000.00,029.3,028.6,000.0,037.8,031.2,011.8,0000.0,0004.99,0036.45,0002.03
2024-06-18 21:51:00,SystemResetWarning,0827.0,4.99,000.00,029.3,028.6,000.0,037.8,031.2,011.9,0000.0,0005.00,0036.53,0002.02
2024-06-18 21:52:00,SystemResetWarning,0827.0,4.99,000.00,029.3,028.6,000.0,037.8,031.2,012.0,0000.0,0004.86,0035.31,0001.97
2024-06-18 21:53:00,SystemResetWarning,0827.1,5.00,000.00,029.3,028.6,000.0,037.8,031.2,011.6,0000.0,0004.73,0034.02,0001.93
2024-06-18 21:54:00,SystemResetWarning,0827.0,5.00,000.00,029.4,028.6,000.0,037.8,031.2,011.7,0000.0,0004.69,0036.59,0001.91
2024-06-18 21:55:00,SystemResetWarning,0827.0,5.01,000.00,029.4,028.6,000.0,037.8,031.2,011.7,0000.0,0004.65,0035.66,0001.89
2024-06-18 21:56:00,SystemResetWarning,0827.0,5.00,000.00,029.4,028.6,000.0,037.9,031.2,011.7,0000.0,0004.63,0033.87,0001.89
2024-06-18 21:57:00,SystemResetWarning,0826.9,5.00,000.00,029.4,028.7,000.0,037.9,031.2,011.9,0000.0,0004.66,0034.16,0001.92
2024-06-18 21:58:00,SystemResetWarning,0827.0,5.00,000.00,029.4,028.7,000.0,037.9,031.2,012.8,0000.0,0004.71,0033.36,0001.92
2024-06-18 21:59:00,SystemResetWarning,0826.9,4.99,000.00,029.4,028.7,000.0,037.9,031.2,012.5,0000.0,0004.73,0032.74,0001.94
